VELOX-II

Last updated on Fri Jul 19 2024 00:03:36 GMT+0000 (Coordinated Universal Time)

1 41171U 15077F 24200.22842821 .01761728 20491-2 21891-2 0 9994 2 41171 14.9815 159.0057 0006929 222.3342 137.6457 16.06834981476786

Satellite not in orbit